This is the latest recevied weather packets stored in our database for station/object E24CR-1. If no packets are shown the sender has not sent any weather packets the latest 10 day(s).
| Time | Temp. | Humidity | Pressure | Rain* | Wind** | Luminosity | Snow |
|---|---|---|---|---|---|---|---|
| 1777449535 | 32.78° C | 42% | 950 hPa | - | - | 0 W/m² | - |
| 1777448909 | 32.78° C | 43% | 950 hPa | - | - | 0 W/m² | - |
| 1777448282 | 33.33° C | 43% | 950 hPa | - | - | 0 W/m² | - |
| 1777447656 | 33.89° C | 42% | 950 hPa | - | - | 0 W/m² | - |
| 1777447032 | 34.44° C | 35% | 950 hPa | - | - | 0 W/m² | - |
| 1777446407 | 33.89° C | 31% | 950 hPa | - | - | 0 W/m² | - |
| 1777445782 | 34.44° C | 36% | 950 hPa | - | - | 0 W/m² | - |
| 1777445157 | 36.11° C | 33% | 950 hPa | - | - | 0 W/m² | - |
| 1777444532 | 34.44° C | 41% | 951 hPa | - | - | 0 W/m² | - |
| 1777443906 | 33.33° C | 39% | 951 hPa | - | - | 0 W/m² | - |
| 1777443281 | 33.89° C | 39% | 951 hPa | - | - | 0 W/m² | - |
| 1777442656 | 34.44° C | 38% | 951 hPa | - | - | 0 W/m² | - |
| 1777442031 | 34.44° C | 41% | 951 hPa | - | - | 0 W/m² | - |
| 1777441406 | 32.78° C | 43% | 951 hPa | - | - | 0 W/m² | - |
| 1777440781 | 33.33° C | 44% | 952 hPa | - | - | 0 W/m² | - |
| 1777440156 | 32.78° C | 44% | 952 hPa | - | - | 0 W/m² | - |
| 1777439531 | 32.78° C | 45% | 952 hPa | - | - | 0 W/m² | - |
| 1777438906 | 32.22° C | 45% | 952 hPa | - | - | 0 W/m² | - |
| 1777438281 | 33.33° C | 45% | 952 hPa | - | - | 0 W/m² | - |
| 1777437656 | 33.89° C | 43% | 952 hPa | - | - | 0 W/m² | - |
| 1777437031 | 33.33° C | 44% | 952 hPa | - | - | 0 W/m² | - |
| 1777436405 | 32.22° C | 45% | 953 hPa | - | - | 0 W/m² | - |
| 1777435780 | 32.22° C | 46% | 953 hPa | - | - | 0 W/m² | - |
| 1777435154 | 31.11° C | 48% | 953 hPa | - | - | 0 W/m² | - |
| 1777434529 | 31.67° C | 47% | 953 hPa | - | - | 0 W/m² | - |
* Rain since midnight (hover to see other rain measurements)
** Current wind speed in m/s (hover to see current wind gust speed)